[[{"header":{"parameterUnit":"m.s-1","parameterCategory":1,"la1":30.2991,"la2":30.254,"lo1":-89.0895,"lo2":-89.0444,"dy":0.0017,"dx":0.0017,"nx":28,"ny":28,"refTime":"2024-10-05T09:00:00:Z","depth":0,"parameterNumber":2,"parameterNumberName":"U-component_of_WINDS"},"data":[0,0,0,0,0,0,0,0,0,0,0,0,0,0,0,0,0,0,0,0,0,0,0,0,0,0,0,0,0,0,0,0,0,0,0,0,0,0,0,0,0,0,0,0,0,0,0,0,0,0,0,0,0,0,0,0,0,0,-4.5568,-4.5568,0,-4.5597,-4.5598,-4.5598,-4.5414,-4.5409,-4.5403,-4.5399,-4.543,-4.5435,-4.5441,0,0,0,0,0,0,0,0,0,0,0,0,0,-4.5352,-4.5357,-4.5568,-4.5568,-4.5568,-4.5597,-4.5598,-4.5598,-4.5415,-4.5408,-4.5402,-4.5396,-4.5428,-4.5435,-4.5441,0,0,0,0,0,0,0,0,0,0,0,0,0,-4.542,-4.5358,-4.5568,-4.548,-4.5473,-4.5597,-4.5598,-4.5598,-4.5416,-4.5408,-4.54,-4.5393,-4.5426,-4.5434,-4.5442,-4.5652,0,0,-4.5469,-4.5472,0,0,0,0,0,0,0,0,-4.5416,-4.5428,-4.5493,-4.5487,-4.5478,-4.5494,-4.5533,-4.5616,-4.5418,-4.5438,-4.5398,-4.5389,-4.5458,-4.5463,-4.5486,-4.5653,-4.5655,-4.5469,-4.5475,-4.5478,-4.5481,0,0,0,0,0,0,0,-4.5412,-4.5426,-4.5579,-4.5494,-4.5485,-4.544,-4.5441,-4.5548,-4.5491,-4.5435,-4.5422,-4.5428,-4.5452,-4.5478,-4.5485,-4.5655,-4.5469,-4.5477,-4.5482,-4.5485,-4.5995,-4.6003,0,0,0,0,0,0,-4.5419,-4.5423,-4.5578,-4.558,-4.5427,-4.545,-4.5451,-4.5497,-4.549,-4.5481,-4.5435,-4.5419,-4.5467,-4.5475,-4.5486,-4.573,-4.5478,-4.5486,-4.5491,-4.5987,-4.5997,-4.6006,0,0,0,0,0,0,-4.5415,-4.5435,-4.5577,-4.5498,-4.5513,-4.5462,-4.5515,-4.5502,-4.5527,-4.5489,-4.5478,-4.5472,-4.5461,-4.5473,-4.5612,-4.5728,-4.549,-4.5498,-4.5977,-4.599,-4.6002,-4.6221,0,0,0,0,0,0,-4.541,-4.5434,-4.5514,-4.5501,-4.5518,-4.5704,-4.5522,-4.5508,-4.5542,-4.5523,-4.5521,-4.5513,-4.5456,-4.56,-4.562,-4.5736,-4.5504,-4.5966,-4.5983,-4.5998,-4.6203,-4.624,-4.6271,0,0,0,0,0,-4.5403,-4.5575,-4.5519,-4.5538,-4.5616,-4.5711,-4.572,-4.5651,-4.5553,-4.5632,-4.5607,-4.5513,-4.5712,-4.5616,-4.5637,-4.5757,-4.5959,-4.5978,-4.5996,-4.6188,-4.6233,-4.627,0,0,0,0,0,0,-4.5603,-4.5572,-4.5509,-4.5682,-4.5701,-4.568,-4.5777,-4.57,-4.5747,-4.5727,-4.5639,-4.564,-4.5794,-4.5788,-4.5681,-4.5959,-4.5818,-4.5842,-4.5957,-4.5999,-4.6032,-4.603,-4.5512,0,0,0,0,0,-4.5667,-4.5747,-4.5715,-4.5871,-4.5883,-4.583,-4.5868,-4.5813,-4.5829,-4.5835,-4.5821,-4.584,-4.5906,-4.5952,-4.6011,-4.6201,-4.6198,-4.6294,-4.6328,-4.6356,-4.6378,-4.6478,-4.652,-4.6068,-4.6068,-4.6068,0,0,-4.5801,-4.5793,-4.5849,-4.5911,-4.5918,-4.6003,-4.5837,-4.5934,-4.5995,-4.585,-4.598,-4.597,-4.5984,-4.615,-4.6222,-4.6151,-4.6502,-4.638,-4.6403,-4.641,-4.6502,-4.6545,-4.6583,-4.6081,-4.6079,-4.6077,0,0,-4.6087,-4.609,-4.622,-4.6231,-4.6244,-4.6207,-4.6239,-4.6229,-4.6217,-4.6345,-4.6238,-4.631,-4.6426,-4.6441,-4.6464,-4.6756,-4.6671,-4.6777,-4.6955,-4.7053,-4.7088,-4.712,-4.7224,-4.7262,-4.6799,-4.68,-4.68,0,-4.6252,-4.6375,-4.6297,-4.64,-4.643,-4.6302,-4.6433,-4.6447,-4.648,-4.6504,-4.6423,-4.6566,-4.6567,-4.6734,-4.6805,-4.6827,-4.686,-4.6778,-4.709,-4.712,-4.7148,-4.7246,-4.7285,-4.6813,-4.6811,-4.681,-4.6809,0,-4.6577,-4.6664,-4.6767,-4.6801,-4.6842,-4.696,-4.6899,-4.695,-4.6891,-4.6863,-4.6995,-4.6991,-4.7047,-4.7082,-4.7026,-4.7241,-4.7196,-4.7105,-4.6961,-4.7205,-4.7296,-4.7333,-4.6831,-4.6826,-4.6823,-4.6819,0,0,-4.6992,-4.698,-4.702,-4.7033,-4.7038,-4.7104,-4.7214,-4.7268,-4.7314,-4.7341,-4.7431,-4.7532,-4.7446,-4.7473,-4.7417,-4.7503,-4.7734,-4.74,-4.7399,-4.7462,-4.7971,-4.8041,-4.8085,-4.7677,-4.7684,-4.769,-4.7969,0,-4.7272,-4.746,-4.7393,-4.7585,-4.7664,-4.7543,-4.7639,-4.7653,-4.7629,-4.7692,-4.7664,-4.7738,-4.7619,-4.7634,-4.7714,-4.7689,-4.7835,-4.7668,-4.7761,-4.7765,-4.7762,-4.8133,-4.8207,-4.8471,-4.8004,-4.801,-4.8015,0,-4.7625,-4.7665,-4.7866,-4.7856,-4.7887,-4.7975,-4.8018,-4.808,-4.8093,-4.8069,-4.8098,-4.8023,-4.813,-4.7987,-4.8134,-4.8022,-4.8055,-4.8049,-4.8057,-4.8064,-4.7905,-4.815,-4.8554,-4.8594,-4.807,-4.8065,-4.8061,0,-4.7908,-4.8012,-4.8145,-4.816,-4.8153,-4.8217,-4.8217,-4.8221,-4.8258,-4.8296,-4.8319,-4.837,-4.8398,-4.8438,-4.8379,-4.828,-4.8534,-4.8386,-4.8518,-4.852,-4.8577,-4.8575,-4.8993,-4.8599,-4.8599,-4.8598,-4.8597,0,-4.8228,-4.8356,-4.8272,-4.8354,-4.8493,-4.8414,-4.8554,-4.854,-4.8545,-4.8622,-4.8519,-4.8594,-4.8511,-4.8577,-4.8531,-4.866,-4.8673,-4.8657,-4.8643,-4.8667,-4.8669,-4.8688,-4.8668,-4.8608,-4.8606,-4.8604,-4.8602,0,-4.8568,-4.8517,-4.8654,-4.8635,-4.8633,-4.8737,-4.872,-4.8795,-4.8763,-4.8862,-4.8881,-4.8831,-4.8904,-4.8848,-4.8921,-4.8889,-4.9059,-4.9019,-4.9055,-4.9044,-4.9179,-4.9168,-4.9625,-4.9681,-4.9251,-4.9256,-4.9259,0,-4.8776,-4.8872,-4.8863,-4.8907,-4.8913,-4.8986,-4.9022,-4.8947,-4.8989,-4.901,-4.9083,-4.9147,-4.9194,-4.9316,-4.9287,-4.9341,-4.9302,-4.9459,-4.931,-4.933,-4.9304,-4.93,-4.9309,-4.9489,-4.9494,-4.9498,-4.9502,0,-4.9151,-4.9121,-4.9178,-4.9226,-4.9273,-4.9307,-4.9333,-4.9375,-4.9299,-4.9351,-4.9424,-4.9461,-4.9534,-4.9599,-4.9643,-4.9642,-4.956,-4.9549,-4.9582,-4.9607,-4.9624,-4.9616,-4.9138,-4.9539,-4.9535,-4.9532,-4.953,-4.9529,-4.9432,-4.951,-4.9516,-4.9582,-4.9594,-4.9621,-4.969,-4.9666,-4.9726,-4.978,-4.9731,-4.982,-4.9828,-4.9878,-4.9887,-4.9955,-4.989,-4.9939,-4.9951,-4.9964,-4.9983,-4.9613,-4.9963,-4.9961,-4.996,-4.9959,-4.9959,0,-4.9801,-4.9799,-4.986,-4.99,-4.9952,-4.9869,-4.9894,-4.9943,-5.0022,-5.0036,-5.0085,-5.0169,-5.0231,-5.0206,-5.026,-5.0319,-5.0283,-5.0336,-5.0331,-5.0332,-5.0038,-5.0004,-5.0365,-5.0365,-5.0365,-5.0365,-5.0364,-5.0364,-5.0,-5.0128,-5.0099,-5.0232,-5.0228,-5.0313,-5.0334,-5.0358,-5.0369,-5.0467,-5.0518,-5.0501,-5.05,-5.0553,-5.0607,-5.0598,-5.0623,-5.069,-5.0668,-5.0393,-5.0353,-5.0315,-5.0282,-5.0696,-5.0696,-5.0956,-5.0958,-5.096]},{"header":{"parameterUnit":"m.s-1","parameterCategory":1,"la1":30.2991,"la2":30.254,"lo1":-89.0895,"lo2":-89.0444,"dy":0.0017,"dx":0.0017,"nx":28,"ny":28,"refTime":"2024-10-05T09:00:00:Z","depth":0,"parameterNumber":3,"parameterNumberName":"V-component_of_WINDS"},"data":[0,0,0,0,0,0,0,0,0,0,0,0,0,0,0,0,0,0,0,0,0,0,0,0,0,0,0,0,0,0,0,0,0,0,0,0,0,0,0,0,0,0,0,0,0,0,0,0,0,0,0,0,0,0,0,0,0,0,-1.9221,-1.9221,0,-1.9215,-1.9214,-1.9214,-1.9219,-1.9219,-1.922,-1.922,-1.9212,-1.9212,-1.9211,0,0,0,0,0,0,0,0,0,0,0,0,0,-1.9234,-1.9234,-1.9221,-1.9221,-1.9221,-1.9215,-1.9214,-1.9214,-1.9219,-1.9219,-1.922,-1.922,-1.9212,-1.9212,-1.9211,0,0,0,0,0,0,0,0,0,0,0,0,0,-1.9228,-1.9234,-1.9221,-1.9222,-1.9222,-1.9215,-1.9214,-1.9214,-1.9219,-1.9219,-1.922,-1.922,-1.9212,-1.9212,-1.9211,-1.9201,0,0,-1.9209,-1.9209,0,0,0,0,0,0,0,0,-1.9228,-1.9227,-1.9222,-1.9222,-1.9222,-1.9218,-1.9216,-1.921,-1.9219,-1.922,-1.922,-1.922,-1.9214,-1.9213,-1.9211,-1.9201,-1.92,-1.9209,-1.9209,-1.9209,-1.9208,0,0,0,0,0,0,0,-1.9229,-1.9228,-1.9218,-1.9222,-1.9222,-1.9222,-1.9222,-1.9215,-1.9215,-1.922,-1.922,-1.922,-1.9214,-1.9212,-1.9211,-1.92,-1.9209,-1.9209,-1.9208,-1.9208,-1.9179,-1.9179,0,0,0,0,0,0,-1.9229,-1.9228,-1.9218,-1.9218,-1.9226,-1.9222,-1.9221,-1.9219,-1.9215,-1.9215,-1.9219,-1.922,-1.9212,-1.9212,-1.9211,-1.9197,-1.9209,-1.9208,-1.9208,-1.918,-1.9179,-1.9179,0,0,0,0,0,0,-1.923,-1.9228,-1.9219,-1.9223,-1.9222,-1.9221,-1.9219,-1.9219,-1.9217,-1.9215,-1.9215,-1.9217,-1.9213,-1.9211,-1.9203,-1.9197,-1.9208,-1.9207,-1.918,-1.918,-1.9179,-1.9171,0,0,0,0,0,0,-1.923,-1.9228,-1.9225,-1.9223,-1.9222,-1.9212,-1.9218,-1.9218,-1.9216,-1.9216,-1.9213,-1.9213,-1.9213,-1.9204,-1.9202,-1.9196,-1.9207,-1.9181,-1.918,-1.9179,-1.9172,-1.9171,-1.9169,0,0,0,0,0,-1.923,-1.9224,-1.9225,-1.9224,-1.9218,-1.9212,-1.9211,-1.9212,-1.9215,-1.9212,-1.921,-1.9213,-1.9198,-1.9203,-1.9201,-1.9195,-1.9181,-1.918,-1.9179,-1.9173,-1.9171,-1.9169,0,0,0,0,0,0,-1.9225,-1.9223,-1.9225,-1.9218,-1.9215,-1.9213,-1.9208,-1.921,-1.9206,-1.9206,-1.9207,-1.9206,-1.9197,-1.9195,-1.9201,-1.9184,-1.919,-1.9189,-1.9186,-1.9184,-1.9182,-1.9182,-1.9206,0,0,0,0,0,-1.9223,-1.9219,-1.9217,-1.9211,-1.9209,-1.9209,-1.9206,-1.9207,-1.9204,-1.9203,-1.9201,-1.9197,-1.9191,-1.9188,-1.9182,-1.9172,-1.917,-1.9167,-1.9165,-1.9164,-1.9163,-1.9155,-1.9153,-1.9176,-1.9176,-1.9176,0,0,-1.9219,-1.9217,-1.9215,-1.921,-1.9208,-1.9202,-1.9208,-1.9202,-1.9198,-1.9202,-1.9193,-1.9191,-1.9187,-1.9177,-1.9173,-1.9176,-1.9156,-1.9163,-1.9162,-1.9161,-1.9154,-1.9151,-1.9149,-1.9175,-1.9175,-1.9175,0,0,-1.9208,-1.9207,-1.9201,-1.9199,-1.9195,-1.9195,-1.9193,-1.919,-1.9189,-1.9181,-1.9183,-1.9177,-1.9168,-1.9164,-1.9161,-1.9147,-1.9149,-1.9146,-1.9138,-1.913,-1.9128,-1.9127,-1.912,-1.9118,-1.9145,-1.9145,-1.9145,0,-1.9203,-1.9196,-1.9197,-1.9191,-1.9188,-1.9191,-1.9184,-1.9181,-1.9176,-1.9174,-1.9177,-1.9164,-1.9162,-1.915,-1.9146,-1.9144,-1.9141,-1.9146,-1.9129,-1.9127,-1.9125,-1.9119,-1.9117,-1.9144,-1.9144,-1.9144,-1.9144,0,-1.9189,-1.9184,-1.9179,-1.9174,-1.917,-1.9164,-1.9163,-1.9159,-1.916,-1.9158,-1.9149,-1.9146,-1.9139,-1.9136,-1.9137,-1.9124,-1.9126,-1.9129,-1.9134,-1.9123,-1.9117,-1.9114,-1.9143,-1.9144,-1.9144,-1.9144,0,0,-1.9176,-1.9171,-1.9169,-1.9165,-1.9161,-1.9157,-1.9149,-1.9143,-1.9139,-1.9135,-1.9128,-1.9119,-1.9121,-1.9118,-1.9118,-1.9111,-1.9098,-1.9115,-1.9115,-1.9111,-1.9081,-1.9078,-1.9075,-1.9099,-1.9099,-1.9099,-1.9081,0,-1.9164,-1.9152,-1.9152,-1.914,-1.9134,-1.9136,-1.9129,-1.9125,-1.9124,-1.9117,-1.9115,-1.9108,-1.9113,-1.911,-1.9104,-1.9101,-1.9092,-1.9103,-1.9091,-1.9091,-1.9091,-1.9072,-1.9069,-1.9052,-1.9079,-1.9078,-1.9078,0,-1.9149,-1.9144,-1.9131,-1.9126,-1.9124,-1.9118,-1.9111,-1.9106,-1.91,-1.9099,-1.9094,-1.9095,-1.9086,-1.9092,-1.9078,-1.9086,-1.9081,-1.9078,-1.9078,-1.9076,-1.9083,-1.9068,-1.9047,-1.9044,-1.9074,-1.9075,-1.9075,0,-1.9138,-1.9129,-1.9119,-1.9117,-1.9111,-1.9107,-1.9104,-1.9099,-1.9094,-1.9088,-1.9085,-1.9078,-1.9073,-1.9067,-1.9065,-1.907,-1.905,-1.9057,-1.9048,-1.9048,-1.9043,-1.9043,-1.902,-1.9042,-1.9042,-1.9042,-1.9042,0,-1.9124,-1.9116,-1.9114,-1.9109,-1.9099,-1.9099,-1.9089,-1.9086,-1.9081,-1.9074,-1.9075,-1.9068,-1.9067,-1.9059,-1.9057,-1.9045,-1.9043,-1.9041,-1.904,-1.904,-1.904,-1.9036,-1.9037,-1.9042,-1.9042,-1.9042,-1.9042,0,-1.9111,-1.911,-1.9099,-1.9095,-1.9093,-1.9086,-1.9081,-1.9075,-1.9073,-1.9063,-1.9061,-1.9057,-1.9048,-1.9045,-1.9034,-1.9032,-1.9017,-1.9019,-1.9019,-1.9019,-1.9009,-1.9009,-1.8981,-1.8976,-1.9003,-1.9003,-1.9003,0,-1.9102,-1.9096,-1.909,-1.9085,-1.9082,-1.9075,-1.907,-1.9069,-1.9063,-1.9056,-1.905,-1.904,-1.9033,-1.9017,-1.9013,-1.9003,-1.9003,-1.8994,-1.9002,-1.9001,-1.9001,-1.9001,-1.8999,-1.8992,-1.8992,-1.8992,-1.8992,0,-1.9085,-1.9084,-1.9078,-1.907,-1.9064,-1.9058,-1.9053,-1.9048,-1.9046,-1.904,-1.903,-1.9024,-1.9012,-1.9002,-1.8992,-1.8988,-1.8988,-1.8989,-1.8986,-1.8985,-1.8985,-1.8983,-1.9013,-1.899,-1.899,-1.899,-1.899,-1.899,-1.9073,-1.9066,-1.9061,-1.9053,-1.9048,-1.9042,-1.9035,-1.9032,-1.9024,-1.9014,-1.9014,-1.9003,-1.8995,-1.8982,-1.8977,-1.8967,-1.897,-1.8966,-1.8965,-1.8964,-1.8962,-1.8988,-1.8966,-1.8966,-1.8966,-1.8966,-1.8966,0,-1.9055,-1.9051,-1.9044,-1.9035,-1.9028,-1.903,-1.9023,-1.9017,-1.9007,-1.9,-1.8992,-1.898,-1.897,-1.8964,-1.8953,-1.8946,-1.8946,-1.8943,-1.8943,-1.8941,-1.8961,-1.8964,-1.8943,-1.8943,-1.8943,-1.8943,-1.8943,-1.8943,-1.9045,-1.9033,-1.9032,-1.9017,-1.9013,-1.9003,-1.8998,-1.8992,-1.8986,-1.8972,-1.8964,-1.896,-1.8953,-1.8942,-1.8931,-1.893,-1.8925,-1.8922,-1.892,-1.8938,-1.894,-1.8943,-1.8945,-1.8921,-1.8921,-1.8901,-1.8901,-1.89]}]]